Location: Nelson
(41.2830°S, 173.2830°E)
Time: 04:37:08
(UTC+13:00)

Cosmos 2322 - Pass Details

Date: 24 January 2019
Orbit: 839 x 856 km, 71.0° (Epoch: 21 February)

Event Time Altitude Azimuth Distance (km) Brightness Sun altitude
Exits shadow 23:18:17 22° 339° (NNW) 1,782 5.1 -21.3°
Maximum altitude 23:22:07 89° 63° (ENE) 860 3.6 -21.7°
Drops below altitude 10° 23:27:52 10° 156° (SSE) 2,493 6.5 -22.3°
Sets 23:30:20 0° 155° (SSE) 3,433 7.3 -22.6°
